| time (UTC) | temp F | wind direction | speed MPH | gust MPH | rain 1hr in | rain 24hr in | rain mn in | humidity % | barometer mb |
| 20260905152525 | 50 | 61 | 1.0 | 3.0 | 0.00 | 0.02 | 0.01 | 92 | 1022.1 |
| 20260905152032 | 50 | 51 | 2.0 | 3.0 | 0.00 | 0.02 | 0.01 | 93 | 1022.1 |
| 20260905151529 | 50 | 45 | 1.0 | 3.0 | 0.00 | 0.02 | 0.01 | 93 | 1022.1 |
| 20260905151026 | 49 | 59 | 1.0 | 2.0 | 0.00 | 0.02 | 0.01 | 93 | 1022.0 |
| 20260905150531 | 49 | 268 | 0.0 | 1.0 | 0.00 | 0.02 | 0.01 | 94 | 1022.0 |
| 20260905150026 | 49 | 268 | 0.0 | 2.0 | 0.00 | 0.02 | 0.01 | 94 | 1022.0 |
| 20260905145536 | 49 | 268 | 1.0 | 3.0 | 0.00 | 0.02 | 0.01 | 94 | 1022.0 |
| 20260905145026 | 49 | 325 | 0.0 | 2.0 | 0.00 | 0.02 | 0.01 | 94 | 1022.0 |
| 20260905144522 | 49 | 72 | 0.0 | 1.0 | 0.00 | 0.02 | 0.01 | 94 | 1021.9 |
| 20260905144133 | 48 | 71 | 0.0 | 1.0 | 0.00 | 0.02 | 0.01 | 94 | 1021.9 |
| 20260905143520 | 48 | 71 | 0.0 | 2.0 | 0.00 | 0.02 | 0.01 | 94 | 1021.9 |
| 20260905143046 | 48 | 71 | 0.0 | 2.0 | 0.00 | 0.02 | 0.01 | 94 | 1021.9 |
| 20260905142524 | 48 | 69 | 0.0 | 2.0 | 0.00 | 0.02 | 0.01 | 94 | 1021.8 |
| 20260905142035 | 48 | 69 | 0.0 | 2.0 | 0.00 | 0.02 | 0.01 | 94 | 1021.8 |
| 20260905141531 | 47 | 59 | 1.0 | 2.0 | 0.00 | 0.02 | 0.01 | 94 | 1021.8 |
| 20260905141038 | 47 | 54 | 0.0 | 2.0 | 0.00 | 0.02 | 0.01 | 95 | 1021.7 |
| 20260905140534 | 47 | 54 | 0.0 | 3.0 | 0.00 | 0.02 | 0.01 | 94 | 1021.7 |
| 20260905140025 | 47 | 64 | 1.0 | 4.0 | 0.00 | 0.02 | 0.01 | 95 | 1021.6 |
| 20260905135541 | 47 | 78 | 1.0 | 4.0 | 0.00 | 0.05 | 0.01 | 94 | 1021.6 |
| 20260905135026 | 47 | 84 | 2.0 | 4.0 | 0.00 | 0.05 | 0.01 | 95 | 1021.5 |
| 20260905134523 | 48 | 271 | 0.0 | 2.0 | 0.00 | 0.05 | 0.01 | 95 | 1021.5 |
| 20260905134032 | 48 | 267 | 0.0 | 2.0 | 0.00 | 0.05 | 0.01 | 95 | 1021.5 |
| 20260905133521 | 48 | 263 | 0.0 | 2.0 | 0.00 | 0.05 | 0.01 | 95 | 1021.4 |
| 20260905133037 | 48 | 237 | 0.0 | 1.0 | 0.00 | 0.05 | 0.01 | 95 | 1021.4 |
| 20260905132526 | 48 | 238 | 0.0 | 2.0 | 0.00 | 0.05 | 0.01 | 95 | 1021.2 |
| 20260905132038 | 47 | 278 | 0.0 | 3.0 | 0.00 | 0.05 | 0.01 | 94 | 1021.2 |
| 20260905131532 | 48 | 258 | 0.0 | 3.0 | 0.01 | 0.05 | 0.01 | 94 | 1021.1 |
| 20260905131020 | 48 | 257 | 0.0 | 2.0 | 0.01 | 0.05 | 0.01 | 95 | 1021.0 |
| 20260905130531 | 47 | 57 | 0.0 | 3.0 | 0.01 | 0.05 | 0.01 | 95 | 1021.0 |
| 20260905130027 | 47 | 57 | 1.0 | 3.0 | 0.01 | 0.05 | 0.01 | 94 | 1021.0 |
| 20260905125518 | 47 | 59 | 1.0 | 3.0 | 0.01 | 0.06 | 0.01 | 95 | 1021.0 |
| 20260905125028 | 47 | 67 | 2.0 | 3.0 | 0.01 | 0.06 | 0.01 | 95 | 1021.0 |
| 20260905124534 | 47 | 77 | 0.0 | 3.0 | 0.01 | 0.06 | 0.01 | 95 | 1020.9 |
| 20260905124032 | 47 | 77 | 0.0 | 3.0 | 0.01 | 0.06 | 0.01 | 95 | 1021.0 |
| 20260905123522 | 47 | 50 | 0.0 | 2.0 | 0.01 | 0.06 | 0.01 | 95 | 1020.8 |
| 20260905123036 | 47 | 271 | 0.0 | 0.0 | 0.01 | 0.06 | 0.01 | 95 | 1020.9 |
| 20260905122531 | 47 | 271 | 0.0 | 0.0 | 0.01 | 0.06 | 0.01 | 95 | 1020.9 |
| 20260905122036 | 47 | 271 | 0.0 | 0.0 | 0.01 | 0.06 | 0.01 | 95 | 1020.9 |
| 20260905121533 | 47 | 271 | 0.0 | 0.0 | 0.00 | 0.05 | 0.00 | 95 | 1020.9 |
| 20260905121021 | 47 | 265 | 0.0 | 1.0 | 0.00 | 0.05 | 0.00 | 95 | 1020.8 |
| 20260905120532 | 47 | 265 | 0.0 | 4.0 | 0.00 | 0.05 | 0.00 | 95 | 1020.8 |
| 20260905120027 | 47 | 265 | 2.0 | 6.0 | 0.00 | 0.05 | 0.00 | 95 | 1020.8 |
| 20260905115535 | 47 | 263 | 2.0 | 4.0 | 0.00 | 0.05 | 0.00 | 94 | 1020.9 |
| 20260905115025 | 47 | 251 | 0.0 | 2.0 | 0.00 | 0.05 | 0.00 | 94 | 1020.9 |
| 20260905114520 | 47 | 259 | 0.0 | 2.0 | 0.00 | 0.05 | 0.00 | 94 | 1020.7 |
| 20260905114036 | 47 | 80 | 0.0 | 2.0 | 0.00 | 0.05 | 0.00 | 94 | 1020.5 |
| 20260905113526 | 46 | 54 | 1.0 | 2.0 | 0.00 | 0.05 | 0.00 | 94 | 1020.4 |
| 20260905113022 | 46 | 54 | 0.0 | 1.0 | 0.00 | 0.05 | 0.00 | 93 | 1020.5 |
| 20260905112533 | 47 | 54 | 0.0 | 2.0 | 0.00 | 0.05 | 0.00 | 94 | 1020.4 |
| 20260905112021 | 47 | 47 | 0.0 | 2.0 | 0.00 | 0.05 | 0.00 | 94 | 1020.4 |
| 20260905111541 | 47 | 73 | 0.0 | 2.0 | 0.00 | 0.05 | 0.00 | 94 | 1020.3 |
| 20260905111026 | 46 | 73 | 0.0 | 3.0 | 0.00 | 0.05 | 0.00 | 93 | 1020.3 |
| 20260905110535 | 46 | 73 | 1.0 | 3.0 | 0.00 | 0.05 | 0.00 | 93 | 1020.3 |
| 20260905110032 | 47 | 96 | 0.0 | 2.0 | 0.00 | 0.05 | 0.00 | 93 | 1020.3 |
| 20260905105520 | 47 | 52 | 0.0 | 1.0 | 0.00 | 0.05 | 0.00 | 93 | 1020.3 |
| 20260905105028 | 47 | 52 | 0.0 | 3.0 | 0.00 | 0.05 | 0.00 | 93 | 1020.1 |
| 20260905104526 | 47 | 52 | 0.0 | 3.0 | 0.00 | 0.05 | 0.00 | 93 | 1020.1 |
| 20260905104038 | 47 | 34 | 1.0 | 3.0 | 0.00 | 0.05 | 0.00 | 93 | 1020.1 |
| 20260905103528 | 47 | 17 | 0.0 | 3.0 | 0.00 | 0.05 | 0.00 | 93 | 1020.0 |
| 20260905103025 | 47 | 17 | 1.0 | 3.0 | 0.00 | 0.05 | 0.00 | 94 | 1020.1 |
| 20260905102532 | 48 | 351 | 1.0 | 2.0 | 0.00 | 0.05 | 0.00 | 94 | 1020.2 |
| 20260905102021 | 47 | 278 | 1.0 | 4.0 | 0.00 | 0.05 | 0.00 | 94 | 1020.1 |
| 20260905101547 | 47 | 272 | 1.0 | 4.0 | 0.00 | 0.05 | 0.00 | 94 | 1020.2 |
| 20260905101028 | 48 | 277 | 1.0 | 3.0 | 0.00 | 0.05 | 0.00 | 94 | 1020.3 |
| 20260905100537 | 47 | 255 | 0.0 | 1.0 | 0.00 | 0.05 | 0.00 | 93 | 1020.3 |
| 20260905100031 | 47 | 267 | 0.0 | 2.0 | 0.00 | 0.05 | 0.00 | 93 | 1020.3 |
| 20260905095520 | 47 | 267 | 0.0 | 3.0 | 0.00 | 0.05 | 0.00 | 93 | 1020.3 |
| 20260905095028 | 48 | 246 | 1.0 | 3.0 | 0.00 | 0.05 | 0.00 | 93 | 1020.3 |
| 20260905094525 | 47 | 227 | 0.0 | 0.0 | 0.00 | 0.05 | 0.00 | 92 | 1020.4 |
| 20260905094035 | 47 | 67 | 0.0 | 2.0 | 0.00 | 0.05 | 0.00 | 92 | 1020.4 |
| 20260905093524 | 47 | 67 | 0.0 | 2.0 | 0.00 | 0.05 | 0.00 | 92 | 1020.4 |
| 20260905093021 | 47 | 61 | 1.0 | 3.0 | 0.00 | 0.05 | 0.00 | 91 | 1020.4 |
| 20260905092527 | 47 | 57 | 1.0 | 3.0 | 0.00 | 0.05 | 0.00 | 91 | 1020.4 |
| 20260905092024 | 47 | 86 | 0.0 | 1.0 | 0.00 | 0.05 | 0.00 | 91 | 1020.5 |
| 20260905091519 | 48 | 84 | 0.0 | 0.0 | 0.00 | 0.05 | 0.00 | 91 | 1020.5 |
| 20260905091029 | 48 | 65 | 0.0 | 0.0 | 0.00 | 0.05 | 0.00 | 91 | 1020.4 |
| 20260905090538 | 48 | 65 | 0.0 | 0.0 | 0.00 | 0.05 | 0.00 | 91 | 1020.5 |
| 20260905090035 | 48 | 70 | 0.0 | 2.0 | 0.00 | 0.05 | 0.00 | 91 | 1020.4 |
| 20260905085523 | 48 | 84 | 0.0 | 3.0 | 0.00 | 0.05 | 0.00 | 91 | 1020.4 |
| 20260905085036 | 48 | 80 | 0.0 | 4.0 | 0.00 | 0.05 | 0.00 | 91 | 1020.3 |
| 20260905084530 | 48 | 78 | 2.0 | 4.0 | 0.00 | 0.05 | 0.00 | 92 | 1020.3 |
| 20260905084019 | 49 | 55 | 2.0 | 3.0 | 0.00 | 0.05 | 0.00 | 92 | 1020.3 |
| 20260905083634 | 49 | 360 | 0.0 | 1.0 | 0.00 | 0.05 | 0.00 | 92 | 1020.3 |
| 20260905083026 | 49 | 270 | 0.0 | 2.0 | 0.00 | 0.05 | 0.00 | 92 | 1020.3 |
| 20260905082535 | 49 | 260 | 0.0 | 3.0 | 0.00 | 0.05 | 0.00 | 92 | 1020.3 |
| 20260905082025 | 49 | 212 | 0.0 | 3.0 | 0.00 | 0.05 | 0.00 | 92 | 1020.2 |
| 20260905081525 | 49 | 204 | 0.0 | 6.0 | 0.00 | 0.05 | 0.00 | 92 | 1020.1 |
| 20260905081038 | 49 | 257 | 2.0 | 7.0 | 0.00 | 0.05 | 0.00 | 92 | 1020.0 |
| 20260905080525 | 49 | 255 | 3.0 | 6.0 | 0.00 | 0.05 | 0.00 | 92 | 1019.8 |
| 20260905080019 | 49 | 270 | 2.0 | 6.0 | 0.00 | 0.05 | 0.00 | 92 | 1019.9 |
| 20260905075531 | 49 | 261 | 3.0 | 6.0 | 0.00 | 0.05 | 0.00 | 92 | 1019.9 |
| 20260905075020 | 49 | 265 | 2.0 | 5.0 | 0.00 | 0.05 | 0.00 | 92 | 1019.9 |
| 20260905074539 | 50 | 227 | 1.0 | 4.0 | 0.00 | 0.05 | 0.00 | 92 | 1019.9 |
| 20260905074024 | 50 | 234 | 0.0 | 2.0 | 0.00 | 0.05 | 0.00 | 91 | 1019.9 |
| 20260905073539 | 50 | 257 | 0.0 | 3.0 | 0.00 | 0.05 | 0.00 | 92 | 1019.8 |
| 20260905073030 | 50 | 268 | 1.0 | 3.0 | 0.00 | 0.05 | 0.00 | 92 | 1019.7 |
| 20260905072521 | 50 | 277 | 0.0 | 3.0 | 0.00 | 0.05 | 0.00 | 92 | 1019.8 |
| 20260905072031 | 49 | 258 | 1.0 | 3.0 | 0.00 | 0.05 | 0.00 | 91 | 1019.8 |
| 20260905071526 | 49 | 261 | 2.0 | 3.0 | 0.00 | 0.05 | 0.00 | 91 | 1019.8 |
| 20260905071035 | 49 | 254 | 1.0 | 4.0 | 0.00 | 0.05 | 0.00 | 91 | 1019.6 |
| 20260905070529 | 49 | 275 | 1.0 | 6.0 | 0.00 | 0.05 | 0.00 | 91 | 1019.6 |
| 20260905070024 | 49 | 260 | 3.0 | 6.0 | 0.00 | 0.16 | 0.05 | 91 | 1019.6 |
| 20260905065535 | 50 | 242 | 2.0 | 5.0 | 0.00 | 0.16 | 0.05 | 90 | 1019.5 |
| 20260905065026 | 50 | 252 | 3.0 | 6.0 | 0.00 | 0.16 | 0.05 | 91 | 1019.5 |
| 20260905064518 | 50 | 260 | 3.0 | 6.0 | 0.00 | 0.16 | 0.05 | 91 | 1019.5 |
| 20260905064032 | 50 | 262 | 2.0 | 4.0 | 0.00 | 0.16 | 0.05 | 90 | 1019.5 |
| 20260905063536 | 50 | 262 | 0.0 | 4.0 | 0.00 | 0.16 | 0.05 | 90 | 1019.5 |
| 20260905063032 | 50 | 255 | 2.0 | 3.0 | 0.00 | 0.16 | 0.05 | 90 | 1019.4 |
| 20260905062523 | 50 | 257 | 0.0 | 3.0 | 0.00 | 0.16 | 0.05 | 90 | 1019.5 |
| 20260905062032 | 50 | 267 | 1.0 | 3.0 | 0.00 | 0.16 | 0.05 | 90 | 1019.6 |
| 20260905061527 | 50 | 250 | 1.0 | 3.0 | 0.00 | 0.16 | 0.05 | 90 | 1019.5 |
| 20260905061038 | 51 | 281 | 0.0 | 2.0 | 0.00 | 0.16 | 0.05 | 90 | 1019.5 |
| 20260905060525 | 51 | 258 | 0.0 | 3.0 | 0.00 | 0.16 | 0.05 | 90 | 1019.6 |
| 20260905060019 | 51 | 273 | 1.0 | 4.0 | 0.00 | 0.18 | 0.05 | 90 | 1019.7 |
| 20260905055532 | 51 | 254 | 3.0 | 4.0 | 0.00 | 0.18 | 0.05 | 90 | 1019.6 |
| 20260905055023 | 51 | 266 | 2.0 | 4.0 | 0.00 | 0.18 | 0.05 | 89 | 1019.6 |
| 20260905054530 | 51 | 267 | 2.0 | 4.0 | 0.00 | 0.18 | 0.05 | 88 | 1019.6 |
| 20260905054027 | 52 | 247 | 0.0 | 3.0 | 0.00 | 0.18 | 0.05 | 88 | 1019.6 |
| 20260905053538 | 52 | 249 | 0.0 | 2.0 | 0.00 | 0.18 | 0.05 | 88 | 1019.7 |
| 20260905053032 | 52 | 259 | 0.0 | 4.0 | 0.00 | 0.18 | 0.05 | 89 | 1019.7 |
| 20260905052522 | 52 | 277 | 1.0 | 4.0 | 0.00 | 0.18 | 0.05 | 88 | 1019.7 |
| 20260905052030 | 52 | 251 | 2.0 | 4.0 | 0.00 | 0.18 | 0.05 | 88 | 1019.7 |
| 20260905051527 | 52 | 270 | 2.0 | 3.0 | 0.00 | 0.18 | 0.05 | 87 | 1019.6 |
| 20260905051033 | 52 | 270 | 0.0 | 3.0 | 0.00 | 0.18 | 0.05 | 87 | 1019.7 |
| 20260905050524 | 53 | 279 | 0.0 | 3.0 | 0.00 | 0.18 | 0.05 | 87 | 1019.7 |
| 20260905050023 | 53 | 254 | 1.0 | 4.0 | 0.00 | 0.20 | 0.05 | 87 | 1019.6 |
| 20260905045527 | 53 | 269 | 1.0 | 4.0 | 0.00 | 0.20 | 0.05 | 87 | 1019.5 |
| 20260905045040 | 52 | 250 | 0.0 | 4.0 | 0.00 | 0.20 | 0.05 | 86 | 1019.5 |
| 20260905044532 | 52 | 264 | 2.0 | 4.0 | 0.00 | 0.20 | 0.05 | 85 | 1019.7 |
| 20260905044023 | 53 | 255 | 1.0 | 3.0 | 0.00 | 0.20 | 0.05 | 85 | 1019.7 |
| 20260905043535 | 53 | 263 | 1.0 | 3.0 | 0.00 | 0.20 | 0.05 | 85 | 1019.7 |
| 20260905043032 | 53 | 236 | 1.0 | 3.0 | 0.00 | 0.20 | 0.05 | 85 | 1019.7 |
| 20260905042519 | 53 | 277 | 2.0 | 3.0 | 0.00 | 0.20 | 0.05 | 84 | 1019.6 |
| 20260905042029 | 54 | 258 | 1.0 | 3.0 | 0.00 | 0.20 | 0.05 | 85 | 1019.6 |
| 20260905041525 | 54 | 275 | 1.0 | 3.0 | 0.00 | 0.20 | 0.05 | 84 | 1019.6 |
| 20260905041039 | 54 | 256 | 0.0 | 3.0 | 0.00 | 0.20 | 0.05 | 84 | 1019.6 |
| 20260905040524 | 54 | 270 | 1.0 | 3.0 | 0.00 | 0.20 | 0.05 | 83 | 1019.5 |
| 20260905040048 | 54 | 252 | 1.0 | 4.0 | 0.00 | 0.20 | 0.05 | 83 | 1019.6 |
| 20260905035525 | 54 | 257 | 2.0 | 4.0 | 0.00 | 0.20 | 0.05 | 81 | 1019.5 |
| 20260905035036 | 55 | 273 | 1.0 | 4.0 | 0.00 | 0.20 | 0.05 | 81 | 1019.4 |
| 20260905034532 | 55 | 266 | 1.0 | 4.0 | 0.00 | 0.20 | 0.05 | 80 | 1019.4 |
| 20260905034038 | 56 | 221 | 1.0 | 4.0 | 0.00 | 0.20 | 0.05 | 79 | 1019.5 |
| 20260905033527 | 57 | 275 | 0.0 | 4.0 | 0.00 | 0.20 | 0.05 | 77 | 1019.5 |
| 20260905033026 | 57 | 271 | 1.0 | 3.0 | 0.00 | 0.20 | 0.05 | 72 | 1019.5 |
| 20260905032537 | 58 | 278 | 0.0 | 3.0 | 0.00 | 0.20 | 0.05 | 66 | 1019.4 |
| 20260905032025 | 59 | 329 | 0.0 | 5.0 | 0.00 | 0.20 | 0.05 | 65 | 1019.3 |
| 20260905031521 | 59 | 333 | 2.0 | 5.0 | 0.00 | 0.20 | 0.05 | 65 | 1019.3 |
| 20260905031028 | 59 | 339 | 2.0 | 4.0 | 0.00 | 0.20 | 0.05 | 64 | 1019.4 |
| 20260905030541 | 59 | 336 | 2.0 | 4.0 | 0.00 | 0.20 | 0.05 | 64 | 1019.2 |
| 20260905030040 | 59 | 321 | 2.0 | 5.0 | 0.00 | 0.20 | 0.05 | 65 | 1019.2 |
| 20260905025523 | 59 | 328 | 2.0 | 5.0 | 0.00 | 0.20 | 0.05 | 65 | 1019.2 |
| 20260905025030 | 59 | 336 | 0.0 | 4.0 | 0.00 | 0.20 | 0.05 | 66 | 1019.1 |
| 20260905024526 | 59 | 345 | 2.0 | 5.0 | 0.00 | 0.20 | 0.05 | 66 | 1019.0 |
| 20260905024036 | 59 | 355 | 2.0 | 5.0 | 0.00 | 0.20 | 0.05 | 66 | 1019.1 |
| 20260905023525 | 59 | 360 | 2.0 | 6.0 | 0.00 | 0.20 | 0.05 | 65 | 1019.1 |
| 20260905023022 | 60 | 340 | 3.0 | 6.0 | 0.00 | 0.20 | 0.05 | 65 | 1019.1 |
| 20260905022532 | 60 | 341 | 2.0 | 5.0 | 0.00 | 0.20 | 0.05 | 66 | 1019.1 |
| 20260905022022 | 60 | 339 | 2.0 | 6.0 | 0.00 | 0.20 | 0.05 | 65 | 1019.1 |
| 20260905021532 | 60 | 349 | 3.0 | 6.0 | 0.00 | 0.20 | 0.05 | 64 | 1018.9 |
| 20260905021028 | 60 | 321 | 3.0 | 6.0 | 0.00 | 0.20 | 0.05 | 64 | 1019.0 |
| 20260905020537 | 60 | 5 | 3.0 | 6.0 | 0.00 | 0.20 | 0.05 | 64 | 1018.9 |
| 20260905020033 | 60 | 348 | 3.0 | 5.0 | 0.00 | 0.20 | 0.05 | 63 | 1018.9 |
| 20260905015524 | 60 | 340 | 2.0 | 4.0 | 0.00 | 0.20 | 0.05 | 63 | 1019.0 |
| 20260905015030 | 61 | 351 | 2.0 | 4.0 | 0.00 | 0.20 | 0.05 | 62 | 1019.1 |
| 20260905014527 | 61 | 336 | 0.0 | 0.0 | 0.00 | 0.20 | 0.05 | 61 | 1019.0 |
| 20260905014036 | 61 | 336 | 0.0 | 0.0 | 0.00 | 0.20 | 0.05 | 62 | 1018.9 |
| 20260905013529 | 62 | 336 | 0.0 | 1.0 | 0.00 | 0.20 | 0.05 | 59 | 1018.8 |
| 20260905013023 | 61 | 336 | 0.0 | 1.0 | 0.00 | 0.20 | 0.05 | 59 | 1018.7 |
| 20260905012531 | 62 | 336 | 0.0 | 3.0 | 0.00 | 0.20 | 0.05 | 59 | 1018.8 |
| 20260905012021 | 62 | 333 | 1.0 | 3.0 | 0.00 | 0.20 | 0.05 | 57 | 1018.7 |
| 20260905011537 | 62 | 327 | 1.0 | 6.0 | 0.00 | 0.20 | 0.05 | 58 | 1018.7 |
| 20260905011028 | 62 | 360 | 2.0 | 6.0 | 0.00 | 0.20 | 0.05 | 57 | 1018.6 |
| 20260905010519 | 62 | 36 | 3.0 | 8.0 | 0.00 | 0.20 | 0.05 | 57 | 1018.6 |
| 20260905010042 | 62 | 53 | 3.0 | 8.0 | 0.00 | 0.20 | 0.05 | 56 | 1018.6 |
| 20260905005523 | 62 | 36 | 3.0 | 6.0 | 0.00 | 0.20 | 0.05 | 57 | 1018.7 |
| 20260905005035 | 62 | 360 | 2.0 | 6.0 | 0.00 | 0.20 | 0.05 | 57 | 1018.7 |
| 20260905004532 | 62 | 36 | 3.0 | 6.0 | 0.00 | 0.20 | 0.05 | 56 | 1018.7 |
| 20260905004018 | 62 | 340 | 1.0 | 3.0 | 0.00 | 0.20 | 0.05 | 56 | 1018.6 |
| 20260905003530 | 62 | 95 | 1.0 | 3.0 | 0.00 | 0.20 | 0.05 | 56 | 1018.7 |
| 20260905003028 | 62 | 205 | 0.0 | 1.0 | 0.00 | 0.20 | 0.05 | 57 | 1018.7 |
| 20260905002534 | 62 | 205 | 0.0 | 2.0 | 0.00 | 0.20 | 0.05 | 56 | 1018.6 |
| 20260905002024 | 62 | 196 | 0.0 | 3.0 | 0.00 | 0.20 | 0.05 | 55 | 1018.6 |
| 20260905001522 | 63 | 204 | 1.0 | 3.0 | 0.00 | 0.20 | 0.05 | 57 | 1018.6 |
| 20260905001029 | 63 | 185 | 0.0 | 5.0 | 0.00 | 0.20 | 0.05 | 57 | 1018.6 |
| 20260905000541 | 63 | 218 | 2.0 | 5.0 | 0.00 | 0.20 | 0.05 | 56 | 1018.7 |
| 20260905000033 | 63 | 213 | 3.0 | 5.0 | 0.00 | 0.20 | 0.05 | 55 | 1018.7 |
| 20260904235525 | 63 | 208 | 1.0 | 5.0 | 0.00 | 0.20 | 0.05 | 57 | 1018.7 |
| 20260904235038 | 63 | 246 | 2.0 | 5.0 | 0.00 | 0.20 | 0.05 | 57 | 1018.7 |
| 20260904234530 | 64 | 230 | 2.0 | 5.0 | 0.00 | 0.20 | 0.05 | 57 | 1018.6 |
| 20260904234038 | 64 | 245 | 1.0 | 4.0 | 0.00 | 0.20 | 0.05 | 56 | 1018.7 |
| 20260904233527 | 63 | 234 | 2.0 | 5.0 | 0.00 | 0.20 | 0.05 | 57 | 1018.5 |
| 20260904233023 | 63 | 211 | 2.0 | 4.0 | 0.00 | 0.20 | 0.05 | 57 | 1018.6 |
| 20260904232534 | 63 | 242 | 2.0 | 4.0 | 0.00 | 0.20 | 0.05 | 58 | 1018.6 |
| 20260904232021 | 62 | 223 | 1.0 | 4.0 | 0.00 | 0.20 | 0.05 | 59 | 1018.6 |
| 20260904231518 | 62 | 233 | 2.0 | 4.0 | 0.00 | 0.20 | 0.05 | 60 | 1018.5 |
| 20260904231030 | 63 | 214 | 2.0 | 4.0 | 0.00 | 0.20 | 0.05 | 58 | 1018.6 |
| 20260904230537 | 63 | 220 | 2.0 | 4.0 | 0.00 | 0.20 | 0.05 | 59 | 1018.7 |
| 20260904230056 | 62 | 237 | 1.0 | 4.0 | 0.00 | 0.20 | 0.05 | 58 | 1018.8 |
| 20260904225523 | 62 | 221 | 2.0 | 4.0 | 0.00 | 0.20 | 0.05 | 58 | 1018.8 |
| 20260904225031 | 62 | 237 | 2.0 | 4.0 | 0.00 | 0.20 | 0.05 | 58 | 1018.7 |
| 20260904224529 | 62 | 209 | 2.0 | 4.0 | 0.00 | 0.20 | 0.05 | 60 | 1018.8 |
| 20260904224021 | 61 | 213 | 2.0 | 4.0 | 0.00 | 0.20 | 0.05 | 58 | 1018.8 |
| 20260904223530 | 62 | 207 | 3.0 | 4.0 | 0.00 | 0.20 | 0.05 | 59 | 1018.8 |
| 20260904223026 | 61 | 251 | 2.0 | 5.0 | 0.00 | 0.20 | 0.05 | 59 | 1018.9 |
| 20260904222533 | 62 | 215 | 3.0 | 4.0 | 0.00 | 0.20 | 0.05 | 61 | 1019.0 |
| 20260904222024 | 62 | 219 | 0.0 | 4.0 | 0.00 | 0.20 | 0.05 | 60 | 1018.9 |
| 20260904221523 | 62 | 203 | 0.0 | 3.0 | 0.00 | 0.20 | 0.05 | 63 | 1019.0 |
| 20260904221130 | 62 | 263 | 0.0 | 3.0 | 0.00 | 0.20 | 0.05 | 63 | 1018.9 |
| 20260904220538 | 62 | 277 | 0.0 | 2.0 | 0.00 | 0.20 | 0.05 | 64 | 1019.0 |
| 20260904220035 | 60 | 224 | 0.0 | 3.0 | 0.00 | 0.20 | 0.05 | 67 | 1019.0 |
| 20260904215524 | 60 | 230 | 0.0 | 3.0 | 0.00 | 0.20 | 0.05 | 64 | 1019.1 |
| 20260904215032 | 61 | 176 | 0.0 | 0.0 | 0.00 | 0.20 | 0.05 | 66 | 1019.1 |
| 20260904214528 | 61 | 172 | 0.0 | 1.0 | 0.00 | 0.20 | 0.05 | 66 | 1019.1 |
| 20260904214037 | 61 | 209 | 0.0 | 1.0 | 0.00 | 0.20 | 0.05 | 65 | 1019.1 |
| 20260904213529 | 60 | 106 | 0.0 | 1.0 | 0.00 | 0.20 | 0.05 | 65 | 1019.3 |
| 20260904213026 | 60 | 166 | 0.0 | 0.0 | 0.00 | 0.20 | 0.05 | 64 | 1019.2 |
| 20260904212534 | 59 | 147 | 0.0 | 0.0 | 0.00 | 0.20 | 0.05 | 65 | 1019.2 |
| 20260904212023 | 59 | 169 | 0.0 | 2.0 | 0.00 | 0.20 | 0.05 | 69 | 1019.3 |
| 20260904211518 | 58 | 232 | 0.0 | 3.0 | 0.00 | 0.20 | 0.05 | 70 | 1019.3 |
| 20260904211029 | 59 | 175 | 0.0 | 3.0 | 0.00 | 0.20 | 0.05 | 68 | 1019.3 |
| 20260904210538 | 59 | 167 | 0.0 | 3.0 | 0.00 | 0.20 | 0.05 | 69 | 1019.3 |
| 20260904210030 | 58 | 185 | 0.0 | 0.0 | 0.00 | 0.20 | 0.05 | 71 | 1019.3 |
| 20260904205522 | 58 | 216 | 0.0 | 0.0 | 0.00 | 0.20 | 0.05 | 71 | 1019.3 |
| 20260904205031 | 57 | 157 | 0.0 | 0.0 | 0.00 | 0.20 | 0.05 | 73 | 1019.2 |
| 20260904204530 | 57 | 94 | 0.0 | 1.0 | 0.00 | 0.20 | 0.05 | 74 | 1019.2 |
| 20260904204036 | 57 | 126 | 0.0 | 3.0 | 0.00 | 0.20 | 0.05 | 73 | 1019.2 |
| 20260904203523 | 58 | 255 | 0.0 | 3.0 | 0.00 | 0.20 | 0.05 | 75 | 1019.1 |
| 20260904203020 | 58 | 146 | 0.0 | 5.0 | 0.00 | 0.20 | 0.05 | 75 | 1019.1 |
| 20260904202526 | 57 | 201 | 1.0 | 5.0 | 0.00 | 0.20 | 0.05 | 75 | 1019.1 |
| 20260904202021 | 58 | 108 | 0.0 | 3.0 | 0.00 | 0.20 | 0.05 | 75 | 1019.1 |
| 20260904201538 | 58 | 178 | 0.0 | 3.0 | 0.00 | 0.20 | 0.05 | 71 | 1019.0 |
| 20260904201025 | 58 | 151 | 0.0 | 4.0 | 0.00 | 0.20 | 0.05 | 73 | 1019.0 |
| 20260904200537 | 58 | 143 | 1.0 | 4.0 | 0.00 | 0.20 | 0.05 | 72 | 1019.1 |
| 20260904200034 | 59 | 115 | 0.0 | 3.0 | 0.00 | 0.20 | 0.05 | 73 | 1019.1 |
| 20260904195523 | 58 | 185 | 0.0 | 1.0 | 0.00 | 0.20 | 0.05 | 74 | 1019.0 |
| 20260904195033 | 57 | 180 | 0.0 | 1.0 | 0.00 | 0.20 | 0.05 | 76 | 1019.0 |
| 20260904194527 | 57 | 63 | 0.0 | 3.0 | 0.00 | 0.20 | 0.05 | 77 | 1018.9 |
| 20260904194019 | 57 | 117 | 0.0 | 3.0 | 0.00 | 0.20 | 0.05 | 76 | 1018.9 |
| 20260904193528 | 57 | 69 | 0.0 | 3.0 | 0.00 | 0.20 | 0.05 | 76 | 1018.9 |
| 20260904193034 | 58 | 171 | 0.0 | 3.0 | 0.00 | 0.20 | 0.05 | 73 | 1018.9 |
| 20260904192534 | 58 | 207 | 0.0 | 3.0 | 0.00 | 0.20 | 0.05 | 75 | 1018.9 |
| 20260904192022 | 58 | 212 | 1.0 | 3.0 | 0.00 | 0.20 | 0.05 | 74 | 1018.9 |
| 20260904191539 | 57 | 207 | 1.0 | 3.0 | 0.00 | 0.20 | 0.05 | 76 | 1018.9 |
| 20260904191030 | 57 | 187 | 0.0 | 2.0 | 0.00 | 0.20 | 0.05 | 77 | 1018.8 |
| 20260904190521 | 57 | 140 | 0.0 | 2.0 | 0.00 | 0.20 | 0.05 | 75 | 1018.8 |
| 20260904190039 | 57 | 174 | 0.0 | 1.0 | 0.00 | 0.20 | 0.05 | 73 | 1018.8 |
| 20260904185526 | 57 | 175 | 0.0 | 3.0 | 0.00 | 0.20 | 0.05 | 74 | 1018.9 |
| 20260904185036 | 57 | 184 | 0.0 | 3.0 | 0.00 | 0.20 | 0.05 | 77 | 1018.9 |
| 20260904184531 | 56 | 154 | 0.0 | 1.0 | 0.00 | 0.20 | 0.05 | 80 | 1018.7 |
| 20260904184022 | 56 | 182 | 0.0 | 1.0 | 0.00 | 0.20 | 0.05 | 78 | 1018.8 |
| 20260904183533 | 56 | 76 | 0.0 | 2.0 | 0.00 | 0.20 | 0.05 | 80 | 1018.8 |
| 20260904183028 | 56 | 79 | 0.0 | 3.0 | 0.00 | 0.20 | 0.05 | 81 | 1018.7 |
| 20260904182536 | 55 | 84 | 1.0 | 3.0 | 0.00 | 0.20 | 0.05 | 82 | 1018.7 |
| 20260904182028 | 55 | 311 | 0.0 | 0.0 | 0.00 | 0.20 | 0.05 | 83 | 1018.5 |
| 20260904181524 | 54 | 298 | 0.0 | 0.0 | 0.00 | 0.20 | 0.05 | 83 | 1018.6 |
| 20260904181032 | 54 | 315 | 0.0 | 0.0 | 0.00 | 0.20 | 0.05 | 84 | 1018.6 |
| 20260904180526 | 54 | 13 | 0.0 | 0.0 | 0.00 | 0.20 | 0.05 | 85 | 1018.6 |
| 20260904180021 | 54 | 13 | 0.0 | 0.0 | 0.00 | 0.20 | 0.05 | 85 | 1018.6 |
| 20260904175529 | 54 | 16 | 0.0 | 0.0 | 0.00 | 0.20 | 0.05 | 86 | 1018.4 |
| 20260904175024 | 54 | 17 | 0.0 | 0.0 | 0.00 | 0.20 | 0.05 | 85 | 1018.4 |
| 20260904174537 | 53 | 17 | 0.0 | 0.0 | 0.00 | 0.20 | 0.05 | 86 | 1018.3 |
| 20260904174026 | 53 | 54 | 0.0 | 0.0 | 0.00 | 0.20 | 0.05 | 85 | 1018.2 |
| 20260904173536 | 53 | 51 | 0.0 | 0.0 | 0.00 | 0.20 | 0.05 | 86 | 1018.3 |
| 20260904173032 | 53 | 61 | 0.0 | 0.0 | 0.00 | 0.20 | 0.05 | 86 | 1018.1 |
| 20260904172523 | 53 | 63 | 0.0 | 0.0 | 0.00 | 0.20 | 0.05 | 86 | 1018.1 |
| 20260904172031 | 53 | 57 | 0.0 | 0.0 | 0.00 | 0.20 | 0.05 | 86 | 1018.1 |
| 20260904171527 | 53 | 74 | 0.0 | 0.0 | 0.00 | 0.20 | 0.05 | 87 | 1018.1 |
| 20260904171037 | 53 | 65 | 0.0 | 0.0 | 0.00 | 0.20 | 0.05 | 87 | 1018.0 |
| 20260904170525 | 53 | 69 | 0.0 | 3.0 | 0.00 | 0.20 | 0.05 | 87 | 1017.9 |
| 20260904170018 | 53 | 82 | 0.0 | 5.0 | 0.00 | 0.20 | 0.05 | 88 | 1017.8 |
| 20260904165529 | 53 | 65 | 3.0 | 5.0 | 0.00 | 0.20 | 0.05 | 87 | 1017.8 |
| 20260904165022 | 53 | 78 | 0.0 | 1.0 | 0.00 | 0.20 | 0.05 | 87 | 1017.8 |
| 20260904164536 | 53 | 61 | 0.0 | 0.0 | 0.00 | 0.20 | 0.05 | 87 | 1017.7 |
| 20260904164027 | 53 | 66 | 0.0 | 0.0 | 0.00 | 0.20 | 0.05 | 87 | 1017.7 |
| 20260904163535 | 53 | 134 | 0.0 | 0.0 | 0.00 | 0.20 | 0.05 | 88 | 1017.7 |
| 20260904163031 | 53 | 134 | 0.0 | 0.0 | 0.00 | 0.20 | 0.05 | 88 | 1017.6 |
| 20260904162522 | 53 | 170 | 0.0 | 0.0 | 0.00 | 0.20 | 0.05 | 89 | 1017.6 |
| 20260904162032 | 52 | 156 | 0.0 | 0.0 | 0.00 | 0.20 | 0.05 | 89 | 1017.4 |
| 20260904161528 | 52 | 78 | 0.0 | 0.0 | 0.00 | 0.20 | 0.05 | 90 | 1017.4 |
| 20260904161035 | 52 | 78 | 0.0 | 0.0 | 0.00 | 0.20 | 0.05 | 90 | 1017.4 |
| 20260904160525 | 52 | 78 | 0.0 | 0.0 | 0.01 | 0.20 | 0.05 | 90 | 1017.2 |
| 20260904160020 | 52 | 78 | 0.0 | 0.0 | 0.01 | 0.20 | 0.05 | 90 | 1017.3 |
| 20260904155532 | 52 | 78 | 0.0 | 0.0 | 0.01 | 0.20 | 0.05 | 90 | 1017.2 |
| 20260904155041 | 52 | 81 | 0.0 | 0.0 | 0.01 | 0.20 | 0.05 | 91 | 1017.2 |
| 20260904154533 | 51 | 82 | 0.0 | 0.0 | 0.01 | 0.20 | 0.05 | 91 | 1017.2 |
| 20260904154028 | 51 | 82 | 0.0 | 0.0 | 0.01 | 0.20 | 0.05 | 92 | 1017.2 |
| 20260904153537 | 51 | 69 | 0.0 | 0.0 | 0.01 | 0.20 | 0.05 | 92 | 1017.2 |
| 20260904153048 | 51 | 59 | 0.0 | 0.0 | 0.01 | 0.20 | 0.05 | 92 | 1017.0 |